• In Hungary
  • List of Countries
  • For 7 days
  • Water Temperature
  • Satellite Maps
  • Weather Map
  • News
  • Weather Widgets
  • user-avatar
    Login

    Hourly Weather Ozerki

    Today, 18 December, Monday

    Time Temperature Precipitation Wind Pressure Humidity
    00:00 +5°C° 0 mm 5 mps 760 mmHg 83%
    01:00 +5°C° 0.1 mm 5 mps 760 mmHg 84%
    02:00 +5°C° 0.1 mm 5 mps 760 mmHg 84%
    03:00 +5°C° 0.1 mm 5 mps 759 mmHg 84%
    04:00 +4°C° 0.1 mm 6 mps 759 mmHg 85%
    05:00 +4°C° 0.1 mm 6 mps 759 mmHg 85%
    06:00 +4°C° 0.1 mm 6 mps 758 mmHg 86%
    07:00 +4°C° 0.2 mm 6 mps 758 mmHg 86%
    08:00 +4°C° 0.2 mm 7 mps 758 mmHg 87%
    09:00 +4°C° 0.2 mm 7 mps 758 mmHg 87%
    10:00 +5°C° 0.2 mm 7 mps 758 mmHg 86%
    11:00 +5°C° 0.2 mm 7 mps 758 mmHg 84%
    12:00 +6°C° 0.2 mm 7 mps 758 mmHg 82%
    13:00 +6°C° 0.5 mm 7 mps 758 mmHg 82%
    14:00 +6°C° 0.5 mm 7 mps 758 mmHg 81%
    15:00 +6°C° 0.5 mm 7 mps 757 mmHg 80%
    16:00 +8°C° 0.1 mm 7 mps 758 mmHg 80%
    17:00 +8°C° 0.1 mm 7 mps 758 mmHg 81%
    18:00 +8°C° 0.1 mm 6 mps 758 mmHg 81%
    19:00 +8°C° 0.1 mm 6 mps 758 mmHg 84%
    20:00 +8°C° 0.1 mm 5 mps 758 mmHg 87%
    21:00 +7°C° 0.1 mm 5 mps 758 mmHg 90%
    22:00 +7°C° 0.4 mm 4 mps 759 mmHg 91%
    23:00 +7°C° 0.4 mm 4 mps 759 mmHg 91%

    Tomorrow, 19 December, Tuesday

    Time Temperature Precipitation Wind Pressure Humidity
    00:00 +8°C° 0.4 mm 3 mps 759 mmHg 91%
    01:00 +8°C° 0.4 mm 3 mps 759 mmHg 91%
    02:00 +7°C° 0.4 mm 3 mps 759 mmHg 90%
    03:00 +7°C° 0.4 mm 3 mps 759 mmHg 90%
    04:00 +7°C° 0.5 mm 2 mps 759 mmHg 90%
    05:00 +7°C° 0.5 mm 2 mps 760 mmHg 90%
    06:00 +6°C° 0.5 mm 2 mps 760 mmHg 90%
    07:00 +6°C° 1.2 mm 2 mps 760 mmHg 91%
    08:00 +6°C° 1.2 mm 2 mps 760 mmHg 91%
    09:00 +7°C° 1.2 mm 1 mps 761 mmHg 92%
    10:00 +7°C° 1 mm 1 mps 761 mmHg 90%
    11:00 +6°C° 1 mm 2 mps 761 mmHg 89%
    12:00 +6°C° 1 mm 2 mps 761 mmHg 87%
    13:00 +6°C° 0.2 mm 2 mps 762 mmHg 84%
    14:00 +6°C° 0.2 mm 2 mps 762 mmHg 80%
    15:00 +6°C° 0.2 mm 2 mps 762 mmHg 77%
    16:00 +5°C° 0 mm 2 mps 762 mmHg 79%
    17:00 +5°C° 0 mm 2 mps 762 mmHg 80%
    18:00 +4°C° 0 mm 2 mps 762 mmHg 82%
    19:00 +4°C° 0 mm 2 mps 763 mmHg 82%
    20:00 +3°C° 0 mm 2 mps 763 mmHg 83%
    21:00 +3°C° 0 mm 2 mps 763 mmHg 83%
    22:00 +3°C° 0.1 mm 2 mps 763 mmHg 83%
    23:00 +3°C° 0.1 mm 2 mps 764 mmHg 82%

    Day after tomorrow, 20 December, Wednesday

    Time Temperature Precipitation Wind Pressure Humidity
    00:00 +3°C° 0.1 mm 1 mps 764 mmHg 82%
    01:00 +3°C° 0.1 mm 1 mps 764 mmHg 82%
    02:00 +3°C° 0.1 mm 1 mps 764 mmHg 82%
    03:00 +4°C° 0.1 mm 1 mps 765 mmHg 81%
    04:00 +3°C° 0 mm 1 mps 765 mmHg 81%
    05:00 +3°C° 0 mm 1 mps 765 mmHg 81%
    06:00 +3°C° 0 mm 1 mps 765 mmHg 81%
    07:00 +3°C° 0 mm 1 mps 765 mmHg 81%
    08:00 +2°C° 0 mm 0 mps 766 mmHg 81%
    09:00 +2°C° 0 mm 0 mps 766 mmHg 80%
    10:00 +3°C° 0 mm 0 mps 766 mmHg 77%
    11:00 +5°C° 0 mm 1 mps 766 mmHg 74%
    12:00 +5°C° 0 mm 1 mps 766 mmHg 70%
    13:00 +5°C° 0.1 mm 1 mps 766 mmHg 71%
    14:00 +5°C° 0.1 mm 1 mps 766 mmHg 72%
    15:00 +6°C° 0.1 mm 1 mps 766 mmHg 72%
    16:00 +5°C° 0.1 mm 1 mps 766 mmHg 75%
    17:00 +5°C° 0.1 mm 1 mps 766 mmHg 78%
    18:00 +4°C° 0.1 mm 2 mps 767 mmHg 81%
    19:00 +5°C° 0.1 mm 1 mps 767 mmHg 83%
    20:00 +5°C° 0.1 mm 1 mps 767 mmHg 85%
    21:00 +5°C° 0.1 mm 1 mps 767 mmHg 87%
    22:00 +5°C° 0.1 mm 1 mps 767 mmHg 88%
    23:00 +5°C° 0.1 mm 1 mps 767 mmHg 89%

    21 December, Thursday

    Time Temperature Precipitation Wind Pressure Humidity
    00:00 +4°C° 0.1 mm 2 mps 767 mmHg 90%
    01:00 +5°C° 0.2 mm 1 mps 766 mmHg 91%
    02:00 +5°C° 0.2 mm 1 mps 766 mmHg 92%
    03:00 +5°C° 0.2 mm 1 mps 766 mmHg 92%
    04:00 +5°C° 0.4 mm 1 mps 766 mmHg 93%
    05:00 +5°C° 0.4 mm 1 mps 766 mmHg 93%
    06:00 +5°C° 0.4 mm 1 mps 766 mmHg 94%
    07:00 +4°C° 0.5 mm 2 mps 766 mmHg 93%
    08:00 +4°C° 0.5 mm 2 mps 766 mmHg 93%
    09:00 +4°C° 0.5 mm 2 mps 766 mmHg 92%
    10:00 +4°C° 0.5 mm 2 mps 766 mmHg 91%
    11:00 +4°C° 0.5 mm 2 mps 766 mmHg 89%
    12:00 +4°C° 0.5 mm 2 mps 766 mmHg 87%
    13:00 +4°C° 0.2 mm 2 mps 766 mmHg 85%
    14:00 +3°C° 0.2 mm 3 mps 766 mmHg 83%
    15:00 +3°C° 0.2 mm 3 mps 766 mmHg 82%
    16:00 +2°C° 0 mm 3 mps 766 mmHg 83%
    17:00 +3°C° 0 mm 2 mps 766 mmHg 84%
    18:00 +2°C° 0 mm 2 mps 766 mmHg 85%
    19:00 +1°C° 0 mm 2 mps 766 mmHg 85%
    20:00 +1°C° 0 mm 2 mps 766 mmHg 85%
    21:00 +1°C° 0 mm 2 mps 766 mmHg 84%
    22:00 -1°C° 0 mm 2 mps 766 mmHg 84%
    23:00 -1°C° 0 mm 2 mps 766 mmHg 83%

    22 December, Friday

    Time Temperature Precipitation Wind Pressure Humidity
    00:00 -1°C° 0 mm 2 mps 765 mmHg 83%
    01:00 -1°C° 0 mm 2 mps 765 mmHg 82%
    02:00 -2°C° 0 mm 2 mps 765 mmHg 81%
    03:00 -2°C° 0 mm 2 mps 765 mmHg 80%
    04:00 -2°C° 0 mm 2 mps 764 mmHg 80%
    05:00 -2°C° 0 mm 2 mps 764 mmHg 79%
    06:00 -2°C° 0 mm 2 mps 764 mmHg 78%
    07:00 -2°C° 0 mm 2 mps 764 mmHg 77%
    08:00 -2°C° 0 mm 2 mps 764 mmHg 75%
    09:00 -2°C° 0 mm 2 mps 764 mmHg 73%
    10:00 -2°C° 0 mm 2 mps 763 mmHg 68%
    11:00 -1°C° 0 mm 2 mps 763 mmHg 63%
    12:00 +1°C° 0 mm 2 mps 763 mmHg 57%
    13:00 +1°C° 0 mm 2 mps 762 mmHg 57%
    14:00 +1°C° 0 mm 2 mps 762 mmHg 56%
    15:00 +1°C° 0 mm 2 mps 761 mmHg 55%
    16:00 -1°C° 0 mm 2 mps 761 mmHg 59%
    17:00 -1°C° 0 mm 2 mps 762 mmHg 63%
    18:00 -2°C° 0 mm 2 mps 762 mmHg 66%
    19:00 -2°C° 0 mm 2 mps 762 mmHg 68%
    20:00 -2°C° 0 mm 2 mps 762 mmHg 69%
    21:00 -2°C° 0 mm 2 mps 761 mmHg 70%
    22:00 -2°C° 0 mm 2 mps 761 mmHg 72%
    23:00 -2°C° 0 mm 2 mps 761 mmHg 73%

    23 December, Saturday

    Time Temperature Precipitation Wind Pressure Humidity
    00:00 -2°C° 0 mm 2 mps 761 mmHg 74%
    01:00 -2°C° 0 mm 2 mps 760 mmHg 76%
    02:00 -2°C° 0 mm 3 mps 760 mmHg 77%
    03:00 -2°C° 0 mm 3 mps 760 mmHg 79%
    04:00 -2°C° 0 mm 3 mps 759 mmHg 79%
    05:00 -2°C° 0 mm 3 mps 759 mmHg 80%
    06:00 -3°C° 0 mm 4 mps 758 mmHg 80%
    07:00 -3°C° 0 mm 4 mps 758 mmHg 78%
    08:00 -3°C° 0 mm 4 mps 757 mmHg 75%
    09:00 -4°C° 0 mm 5 mps 757 mmHg 72%
    10:00 -2°C° 0 mm 5 mps 756 mmHg 71%
    11:00 -1°C° 0 mm 5 mps 756 mmHg 69%
    12:00 -1°C° 0 mm 6 mps 755 mmHg 68%
    13:00 0°C° 0.2 mm 5 mps 754 mmHg 71%
    14:00 0°C° 0.2 mm 5 mps 754 mmHg 75%
    15:00 0°C° 0.2 mm 4 mps 753 mmHg 79%
    16:00 0°C° 0.6 mm 4 mps 753 mmHg 83%
    17:00 +1°C° 0.6 mm 3 mps 753 mmHg 87%
    18:00 0°C° 0.6 mm 3 mps 753 mmHg 91%
    19:00 0°C° 0.1 mm 3 mps 753 mmHg 91%
    20:00 -1°C° 0.1 mm 4 mps 753 mmHg 91%
    21:00 -1°C° 0.1 mm 4 mps 754 mmHg 91%
    22:00 -2°C° 0 mm 4 mps 754 mmHg 91%
    23:00 -2°C° 0 mm 4 mps 754 mmHg 90%
    Show more